Location: Bauerbach
(50.4985°N, 10.3912°E)
Time: 20:35:28
(UTC+00:00)

Cosmos 1500 Rocket - Pass Details

Date: 13 January 2026
Orbit: 597 x 623 km, 82.5° (Epoch: 13 February)

Event Time Altitude Azimuth Distance (km) Brightness Sun altitude
Rises 05:43:42 0° 203° (SSW) 2,851 6.9 -13.9°
Reaches altitude 10° 05:45:58 10° 209° (SSW) 1,956 6.0 -13.5°
Maximum altitude 05:50:10 49° 285° (WNW) 799 3.7 -12.9°
Drops below altitude 10° 05:54:26 10° 1° (N) 1,988 6.0 -12.2°
Sets 05:56:45 0° 7° (N) 2,902 6.9 -11.9°
